weather.gov     
National Weather Service

Regional Weather Roundup
NWS Homepage
This page is being discontinued on March 12, 2014.
The same data is available at this site. Please update your bookmarks.
Thank you, and we apologize for the inconvenience.
Please send an email to SR-SRH.Webmaster@noaa.gov with any concerns.


Current Version
Previous Version:    01  02  03  04  05  06  07  08  09  10  11  12  13  14  15  16  17  18  19  20  21  22  23  24  25  26  27  28  29  30  
   31  32  33  34  35  36  37  38  39  40  41  42  43  44  45  46  47  48  49  50  51  52  53  54  55  56  57  58  59  60  
[Printable]
586
ASUS44 KOHX 171515
RWROHX
MIDDLE TENNESSEE HOURLY WEATHER ROUNDUP
NATIONAL WEATHER SERVICE NASHVILLE TN
1000 AM CDT THU APR 17 2014

NOTE: "FAIR" INDICATES FEW OR NO CLOUDS BELOW 12,000 FEET WITH
NO SIGNIFICANT WEATHER AND/OR OBSTRUCTIONS TO VISIBILITY.

* THESE REPORTS ARE NOT UNDER NWS QUALITY CONTROL AND MAY NOT
  REPORT WEATHER SUCH AS PRECIPITATION AND FOG.


TNZ005>011-023>034-057-059-062>066-078-080-171600
...NORTHERN MIDDLE TENNESSEE...

CITY           SKY/WX    TMP DP  RH WIND       PRES   REMARKS
BAXTER*          N/A     59  39  47 SW7G29      N/A
BRENTWOOD*       N/A     59  37  44 CALM        N/A
CASTALIAN SPRG   N/A     59  34  38 SE3         N/A
CLARKSVILLE    SUNNY     57  36  45 S12G18    30.35R
COLUMBIA       SUNNY     57  39  51 S10       30.36R
CROSSVILLE     SUNNY     52  24  33 S7G17     30.40R
GALLATIN         N/A     56  33  41 S9        30.40R
DICKSON        SUNNY     55  30  38 S13       30.35R
FAIRFIELD GLAD   N/A     52  30  43 S6          N/A
GOODLETTSVILLE   N/A     54  39  58 CALM        N/A
JOELTON*         N/A     57  36  44 W7          N/A
LAFAYETTE*       N/A     54  30  40 S5          N/A
LIVINGSTON     SUNNY     52  28  39 S5        30.39R
MONTEREY         N/A     54  28  37 CALM        N/A
NASHVILLE      MOSUNNY   58  31  35 S15       30.39R
OLD HICKORY*     N/A     57  39  51 N3          N/A
PEGRAM*          N/A    N/A N/A N/A SE3         N/A
PORTLAND       SUNNY     55  32  41 S13       30.37R
SMYRNA         SUNNY     56  32  40 S12G20    30.40R
SPARTA         SUNNY     55  34  44 S6        30.40R
SPRINGFIELD*     N/A     59  43  55 MISG        N/A
WHITE BLUFF*     N/A     59  32  36 NE9         N/A
$$
TNZ056-058-060-061-075>077-079-093>097-171600
...SOUTHERN MIDDLE TENNESSEE...

CITY           SKY/WX    TMP DP  RH WIND       PRES   REMARKS
BELLEVUE*        N/A     57  37  47 S6          N/A
CULLEOKA*        N/A     55  34  44 S1          N/A
EAGLEVILLE*      N/A    N/A N/A N/A SE9         N/A
FAYETTEVILLE   SUNNY     53  31  43 SE14      30.38R
HOHENWALD*       N/A     55  34  44 SE9         N/A
LEWISBURG      SUNNY     56  33  41 S14       30.38R
MANCHESTER*      N/A     55  36  47 S1          N/A
MCMINNVILLE      N/A     55  29  37 SE5       30.39R
MOUNT PLEASANT   N/A     57  39  51 S6          N/A
MURFREESBORO   SUNNY     56  31  38 S9        30.39R
SHELBYVILLE    SUNNY     55  32  41 S10       30.40R
SPRING HILL*     N/A     57  34  41 S3          N/A
TULLAHOMA      SUNNY     54  28  37 SE8       30.39S
WINCHESTER     SUNNY     54  32  43 SE8       30.39S
$$


...KEY TO REMARKS...
VSB - VISIBILITY IN MILES
WCI - WIND CHILL INDEX
HX  - HEAT INDEX





U.S. Dept. of Commerce
NOAA National Weather Service
1325 East West Highway
Silver Spring, MD 20910
E-mail: w-nws.webmaster@noaa.gov
Page last modified: May 16, 2007
NATIONAL WEATHER SERVICE: for Safety, for Work, for Fun - FOR LIFE